QPF
0.10 0.09 0.08 0.08 0.08 0.08 0.08 0.08 0.08 0.08 0.06 0.04 0.02 0.01 0.01 0.01 0.01 0.01 0.00 0.00 0.00 0.00 0.00 0.00 0.00 0.00 0.00 0.00 0.00 0.00 0.00 0.00 0.00 0.01 0.01 0.01 0.01 0.01
0.04 0.04 0.04 0.04 0.04 0.04 0.06 0.06 0.05 0.04 0.04 0.03 0.02 0.01 0.01 0.00 0.01 0.00 0.00 0.00 0.00 0.00 0.00 0.00 0.00 0.00 0.00 0.00 0.00 0.00 0.00 0.00 0.00 0.00 0.01 0.01 0.01 0.01
0.01 0.01 0.01 0.02 0.02 0.02 0.03 0.04 0.04 0.03 0.03 0.02 0.01 0.01 0.00 0.00 0.00 0.00 0.00 0.00 0.00 0.00 0.00 0.00 0.00 0.00 0.00 0.00 0.00 0.00 0.00 0.00 0.00 0.00 0.00 0.00 0.00 0.01
0.00 0.00 0.00 0.00 0.01 0.01 0.01 0.01 0.01 0.01 0.01 0.01 0.01 0.00 0.00 0.00 0.00 0.00 0.00 0.00 0.00 0.00 0.00 0.00 0.00 0.00 0.00 0.00 0.00 0.00 0.00 0.00 0.00 0.00 0.00 0.00 0.00 0.00
0.00 0.00 0.00 0.00 0.00 0.00 0.00 0.00 0.00 0.00 0.00 0.00 0.00 0.00 0.00 0.00 0.00 0.00 0.00 0.00 0.00 0.00 0.00 0.00 0.00 0.00 0.00 0.00 0.00 0.00 0.00 0.00 0.00 0.00 0.00 0.00 0.00 0.00
0.00 0.00 0.00 0.00 0.00 0.00 0.00 0.00 0.00 0.00 0.00 0.00 0.00 0.00 0.00 0.00 0.00 0.00 0.00 0.00 0.00 0.00 0.00 0.00 0.00 0.00 0.00 0.00 0.00 0.00 0.00 0.00 0.00 0.00 0.00 0.00 0.00 0.00
0.00 0.00 0.00 0.00 0.00 0.00 0.00 0.00 0.00 0.00 0.00 0.00 0.00 0.00 0.00 0.00 0.00 0.00 0.00 0.00 0.00 0.00 0.00 0.00 0.00 0.00 0.00 0.00 0.00 0.00 0.00 0.00 0.00 0.00 0.00 0.00 0.00 0.00
0.00 0.00 0.00 0.00 0.00 0.00 0.00 0.00 0.00 0.00 0.00 0.00 0.00 0.00 0.00 0.00 0.00 0.00 0.00 0.00 0.00 0.00 0.00 0.00 0.00 0.00 0.00 0.00 0.00 0.00 0.00 0.00 0.00 0.00 0.00 0.00 0.00 0.00
0.00 0.00 0.00 0.00 0.00 0.00 0.00 0.00 0.00 0.00 0.00 0.00 0.00 0.00 0.00 0.00 0.00 0.00 0.00 0.00 0.00 0.00 0.00 0.00 0.00 0.00 0.00 0.00 0.00 0.00 0.00 0.00 0.00 0.00 0.00 0.00 0.00 0.00
0.00 0.00 0.00 0.00 0.00 0.00 0.00 0.00 0.00 0.00 0.00 0.00 0.00 0.00 0.00 0.00 0.00 0.00 0.00 0.00 0.00 0.00 0.00 0.00 0.00 0.00 0.00 0.00 0.00 0.00 0.00 0.00 0.00 0.00 0.00 0.00 0.00 0.00
0.00 0.00 0.00 0.00 0.00 0.00 0.00 0.00 0.00 0.00 0.00 0.00 0.00 0.00 0.00 0.00 0.00 0.00 0.00 0.00 0.00 0.00 0.00 0.00 0.00 0.00 0.00 0.00 0.00 0.00 0.00 0.00 0.00 0.00 0.00 0.00 0.00 0.00
0.00 0.00 0.00 0.00 0.00 0.00 0.00 0.00 0.00 0.00 0.00 0.00 0.00 0.00 0.00 0.00 0.00 0.00 0.00 0.00 0.00 0.00 0.00 0.00 0.00 0.00 0.00 0.00 0.00 0.00 0.00 0.00 0.00 0.00 0.00 0.00 0.00 0.00
0.00 0.00 0.00 0.00 0.00 0.00 0.00 0.00 0.00 0.00 0.00 0.00 0.00 0.00 0.00 0.00 0.00 0.00 0.00 0.00 0.00 0.00 0.00 0.00 0.00 0.00 0.00 0.00 0.00 0.00 0.00 0.00 0.00 0.00 0.00 0.00 0.00 0.00
0.00 0.00 0.00 0.00 0.00 0.00 0.00 0.00 0.00 0.00 0.00 0.00 0.00 0.00 0.00 0.00 0.00 0.00 0.00 0.00 0.00 0.00 0.00 0.00 0.00 0.00 0.00 0.00 0.00 0.00 0.00 0.00 0.00 0.00 0.00 0.00 0.00 0.00
0.00 0.00 0.00 0.00 0.00 0.00 0.00 0.00 0.00 0.00 0.00 0.00 0.00 0.00 0.00 0.00 0.00 0.00 0.00 0.00 0.00 0.00 0.00 0.00 0.00 0.00 0.00 0.00 0.00 0.00 0.00 0.00 0.00 0.00 0.00 0.00 0.00 0.00
0.00 0.00 0.00 0.00 0.00 0.00 0.00 0.00 0.00 0.00 0.00 0.00 0.00 0.00 0.00 0.00 0.00 0.00 0.00 0.00 0.00 0.00 0.00 0.00 0.00 0.00 0.00 0.00 0.00 0.00 0.00 0.00 0.00 0.00 0.00 0.00 0.00 0.00
0.00 0.00 0.00 0.00 0.00 0.00 0.00 0.00 0.00 0.00 0.00 0.00 0.00 0.00 0.00 0.00 0.00 0.00 0.00 0.00 0.00 0.00 0.00 0.00 0.00 0.00 0.00 0.00 0.00 0.00 0.00 0.00 0.00 0.00 0.00 0.00 0.00 0.00
0.00 0.00 0.00 0.00 0.00 0.00 0.00 0.00 0.00 0.00 0.00 0.00 0.00 0.00 0.00 0.00 0.00 0.00 0.00 0.00 0.00 0.00 0.00 0.00 0.00 0.00 0.00 0.00 0.00 0.00 0.00 0.00 0.00 0.00 0.00 0.00 0.00 0.00
0.00 0.00 0.00 0.00 0.00 0.00 0.00 0.00 0.00 0.00 0.00 0.00 0.00 0.00 0.00 0.00 0.00 0.00 0.00 0.00 0.00 0.00 0.00 0.00 0.00 0.00 0.00 0.00 0.00 0.00 0.00 0.00 0.00 0.00 0.00 0.00 0.00 0.00
0.00 0.00 0.00 0.00 0.00 0.00 0.00 0.00 0.00 0.00 0.00 0.00 0.00 0.00 0.00 0.00 0.00 0.00 0.00 0.00 0.00 0.00 0.00 0.00 0.00 0.00 0.00 0.00 0.00 0.00 0.00 0.00 0.00 0.00 0.00 0.00 0.00 0.00
0.00 0.00 0.00 0.00 0.00 0.00 0.00 0.00 0.00 0.00 0.00 0.00 0.00 0.00 0.00 0.00 0.00 0.00 0.00 0.00 0.00 0.00 0.00 0.00 0.00 0.00 0.00 0.00 0.00 0.00 0.00 0.00 0.00 0.00 0.00 0.00 0.00 0.00
0.00 0.00 0.00 0.00 0.00 0.00 0.00 0.00 0.00 0.00 0.00 0.00 0.00 0.00 0.00 0.00 0.00 0.00 0.00 0.00 0.00 0.00 0.00 0.00 0.00 0.00 0.00 0.00 0.00 0.00 0.00 0.00 0.00 0.00 0.00 0.00 0.00 0.00
0.00 0.00 0.00 0.00 0.00 0.00 0.00 0.00 0.00 0.00 0.00 0.00 0.00 0.00 0.00 0.00 0.00 0.00 0.00 0.00 0.00 0.00 0.00 0.00 0.00 0.00 0.00 0.00 0.00 0.00 0.00 0.00 0.00 0.00 0.00 0.00 0.00 0.00
MSLP
1016.45 1016.63 1016.96 1017.45 1018.10 1018.88 1019.77 1020.71 1021.67 1022.60 1023.45 1024.20 1024.81 1025.26 1025.57 1025.75 1025.83 1025.83 1025.81 1025.80 1025.82 1025.89 1026.02 1026.19 1026.38 1026.57 1026.73 1026.84 1026.89 1026.87 1026.79 1026.66 1026.51 1026.33 1026.15 1025.97 1025.79 1025.59
1017.03 1017.13 1017.37 1017.74 1018.26 1018.93 1019.72 1020.59 1021.52 1022.44 1023.32 1024.10 1024.75 1025.25 1025.59 1025.77 1025.84 1025.83 1025.79 1025.74 1025.75 1025.81 1025.95 1026.14 1026.36 1026.59 1026.79 1026.93 1027.00 1027.01 1026.94 1026.81 1026.66 1026.48 1026.30 1026.12 1025.95 1025.76
1017.79 1017.86 1018.02 1018.29 1018.69 1019.23 1019.90 1020.68 1021.53 1022.42 1023.28 1024.07 1024.74 1025.25 1025.60 1025.80 1025.86 1025.83 1025.76 1025.69 1025.67 1025.71 1025.84 1026.03 1026.26 1026.49 1026.71 1026.87 1026.95 1026.96 1026.90 1026.79 1026.64 1026.47 1026.30 1026.14 1025.98 1025.82
1018.69 1018.75 1018.85 1019.04 1019.33 1019.75 1020.30 1020.97 1021.74 1022.55 1023.37 1024.13 1024.79 1025.31 1025.66 1025.85 1025.91 1025.87 1025.77 1025.68 1025.62 1025.63 1025.72 1025.88 1026.08 1026.30 1026.50 1026.64 1026.72 1026.72 1026.66 1026.55 1026.41 1026.27 1026.13 1025.99 1025.87 1025.73
1019.66 1019.72 1019.80 1019.93 1020.13 1020.45 1020.89 1021.45 1022.11 1022.84 1023.59 1024.31 1024.93 1025.43 1025.78 1025.96 1026.01 1025.95 1025.84 1025.71 1025.62 1025.59 1025.62 1025.73 1025.87 1026.03 1026.17 1026.27 1026.32 1026.30 1026.22 1026.12 1025.99 1025.87 1025.77 1025.68 1025.60 1025.51
1020.64 1020.71 1020.78 1020.88 1021.02 1021.26 1021.60 1022.06 1022.62 1023.25 1023.92 1024.57 1025.15 1025.61 1025.94 1026.11 1026.15 1026.09 1025.96 1025.81 1025.67 1025.59 1025.56 1025.59 1025.65 1025.72 1025.79 1025.81 1025.79 1025.73 1025.64 1025.52 1025.42 1025.33 1025.26 1025.22 1025.19 1025.15
1021.58 1021.67 1021.74 1021.82 1021.93 1022.10 1022.36 1022.73 1023.19 1023.73 1024.30 1024.87 1025.39 1025.81 1026.11 1026.27 1026.31 1026.24 1026.11 1025.94 1025.77 1025.64 1025.54 1025.48 1025.45 1025.42 1025.38 1025.32 1025.23 1025.11 1024.98 1024.86 1024.76 1024.70 1024.67 1024.68 1024.70 1024.72
1022.44 1022.55 1022.63 1022.69 1022.78 1022.91 1023.11 1023.40 1023.77 1024.21 1024.69 1025.17 1025.62 1025.99 1026.26 1026.41 1026.44 1026.38 1026.25 1026.08 1025.89 1025.72 1025.56 1025.43 1025.30 1025.17 1025.03 1024.87 1024.70 1024.51 1024.34 1024.20 1024.10 1024.06 1024.07 1024.12 1024.18 1024.24
1023.21 1023.32 1023.40 1023.47 1023.54 1023.65 1023.80 1024.02 1024.30 1024.65 1025.04 1025.43 1025.80 1026.12 1026.35 1026.48 1026.52 1026.47 1026.35 1026.19 1026.00 1025.80 1025.61 1025.41 1025.21 1024.99 1024.76 1024.52 1024.27 1024.02 1023.81 1023.64 1023.53 1023.49 1023.52 1023.59 1023.68 1023.77
1023.88 1023.99 1024.07 1024.15 1024.21 1024.29 1024.40 1024.56 1024.78 1025.04 1025.33 1025.63 1025.92 1026.17 1026.36 1026.47 1026.51 1026.47 1026.38 1026.24 1026.06 1025.87 1025.65 1025.42 1025.16 1024.89 1024.59 1024.28 1023.97 1023.67 1023.42 1023.22 1023.10 1023.05 1023.07 1023.14 1023.23 1023.33
1024.45 1024.56 1024.65 1024.72 1024.79 1024.85 1024.93 1025.04 1025.19 1025.37 1025.57 1025.78 1025.99 1026.17 1026.30 1026.39 1026.42 1026.39 1026.32 1026.20 1026.05 1025.87 1025.66 1025.41 1025.14 1024.83 1024.50 1024.15 1023.80 1023.47 1023.18 1022.95 1022.80 1022.73 1022.72 1022.77 1022.85 1022.92
1024.96 1025.06 1025.15 1025.23 1025.29 1025.34 1025.40 1025.47 1025.55 1025.65 1025.77 1025.90 1026.02 1026.12 1026.20 1026.25 1026.26 1026.23 1026.17 1026.08 1025.95 1025.79 1025.59 1025.36 1025.09 1024.78 1024.44 1024.07 1023.71 1023.36 1023.05 1022.80 1022.62 1022.51 1022.47 1022.48 1022.51 1022.55
1025.40 1025.50 1025.59 1025.67 1025.73 1025.78 1025.82 1025.85 1025.88 1025.92 1025.96 1026.00 1026.05 1026.08 1026.10 1026.10 1026.08 1026.03 1025.97 1025.88 1025.77 1025.63 1025.45 1025.24 1024.99 1024.69 1024.36 1024.01 1023.65 1023.30 1022.98 1022.72 1022.51 1022.36 1022.27 1022.22 1022.20 1022.19
1025.79 1025.89 1025.98 1026.06 1026.12 1026.17 1026.19 1026.19 1026.19 1026.17 1026.15 1026.13 1026.10 1026.06 1026.02 1025.96 1025.90 1025.83 1025.74 1025.64 1025.53 1025.39 1025.23 1025.03 1024.80 1024.53 1024.23 1023.90 1023.56 1023.22 1022.91 1022.63 1022.40 1022.21 1022.07 1021.98 1021.90 1021.84
1026.12 1026.21 1026.31 1026.39 1026.45 1026.49 1026.50 1026.49 1026.47 1026.42 1026.35 1026.28 1026.19 1026.10 1026.00 1025.89 1025.77 1025.65 1025.53 1025.40 1025.26 1025.12 1024.95 1024.76 1024.54 1024.30 1024.02 1023.72 1023.40 1023.09 1022.79 1022.51 1022.26 1022.04 1021.87 1021.72 1021.59 1021.49
1026.38 1026.47 1026.56 1026.64 1026.70 1026.74 1026.75 1026.74 1026.70 1026.64 1026.56 1026.46 1026.34 1026.20 1026.05 1025.89 1025.72 1025.54 1025.37 1025.19 1025.02 1024.84 1024.65 1024.45 1024.24 1024.00 1023.75 1023.47 1023.18 1022.89 1022.61 1022.33 1022.08 1021.85 1021.64 1021.45 1021.29 1021.14
1026.58 1026.66 1026.74 1026.82 1026.88 1026.92 1026.94 1026.93 1026.90 1026.84 1026.76 1026.65 1026.51 1026.35 1026.17 1025.97 1025.75 1025.52 1025.29 1025.06 1024.83 1024.60 1024.38 1024.15 1023.93 1023.69 1023.44 1023.19 1022.92 1022.66 1022.39 1022.13 1021.87 1021.63 1021.41 1021.20 1021.01 1020.83
1026.72 1026.78 1026.85 1026.92 1026.98 1027.03 1027.06 1027.06 1027.05 1027.01 1026.94 1026.85 1026.71 1026.55 1026.35 1026.12 1025.86 1025.59 1025.30 1025.01 1024.72 1024.44 1024.17 1023.91 1023.66 1023.41 1023.16 1022.92 1022.67 1022.42 1022.17 1021.92 1021.68 1021.44 1021.21 1020.98 1020.77 1020.57
1026.82 1026.87 1026.93 1026.99 1027.05 1027.10 1027.14 1027.16 1027.17 1027.16 1027.11 1027.04 1026.92 1026.76 1026.55 1026.30 1026.02 1025.70 1025.37 1025.03 1024.68 1024.35 1024.04 1023.74 1023.46 1023.19 1022.94 1022.70 1022.46 1022.23 1022.00 1021.76 1021.53 1021.30 1021.07 1020.84 1020.61 1020.39
1026.90 1026.95 1027.00 1027.06 1027.11 1027.17 1027.21 1027.26 1027.28 1027.29 1027.27 1027.22 1027.11 1026.96 1026.75 1026.49 1026.19 1025.84 1025.47 1025.08 1024.70 1024.32 1023.97 1023.64 1023.34 1023.06 1022.80 1022.56 1022.33 1022.11 1021.90 1021.68 1021.46 1021.23 1021.00 1020.77 1020.53 1020.30
1027.00 1027.05 1027.10 1027.15 1027.21 1027.26 1027.32 1027.37 1027.41 1027.43 1027.43 1027.38 1027.28 1027.13 1026.92 1026.64 1026.32 1025.95 1025.55 1025.14 1024.73 1024.32 1023.95 1023.59 1023.28 1022.99 1022.73 1022.50 1022.28 1022.07 1021.87 1021.66 1021.45 1021.24 1021.01 1020.78 1020.53 1020.27
1027.11 1027.17 1027.23 1027.28 1027.35 1027.40 1027.46 1027.52 1027.56 1027.58 1027.57 1027.52 1027.42 1027.25 1027.02 1026.73 1026.39 1026.00 1025.59 1025.15 1024.73 1024.31 1023.92 1023.57 1023.25 1022.97 1022.72 1022.49 1022.28 1022.09 1021.89 1021.70 1021.50 1021.29 1021.07 1020.83 1020.57 1020.29
1027.23 1027.31 1027.38 1027.45 1027.52 1027.58 1027.64 1027.69 1027.73 1027.73 1027.71 1027.63 1027.50 1027.31 1027.06 1026.75 1026.38 1025.97 1025.55 1025.11 1024.67 1024.26 1023.88 1023.53 1023.23 1022.95 1022.71 1022.50 1022.31 1022.12 1021.94 1021.75 1021.56 1021.35 1021.13 1020.88 1020.61 1020.31
Thickness
5619 5619 5618 5617 5617 5616 5614 5610 5604 5594 5586 5582 5581 5579 5578 5576 5574 5572 5571 5569 5567 5566 5564 5561 5558 5555 5552 5549 5547 5544 5542 5539 5537 5534 5532 5529 5528 5526
5606 5606 5605 5604 5604 5603 5601 5597 5596 5591 5581 5574 5571 5569 5568 5566 5565 5563 5561 5559 5558 5556 5553 5551 5548 5545 5541 5538 5535 5533 5530 5527 5524 5522 5519 5517 5515 5512
5592 5593 5592 5591 5591 5589 5588 5586 5584 5581 5574 5565 5561 5559 5557 5556 5554 5553 5551 5550 5548 5545 5543 5541 5538 5535 5532 5529 5526 5523 5520 5518 5515 5512 5509 5507 5504 5502
5578 5579 5579 5579 5577 5576 5576 5573 5571 5568 5566 5558 5552 5549 5547 5545 5543 5542 5541 5539 5538 5536 5534 5531 5529 5526 5523 5520 5517 5515 5512 5509 5506 5503 5501 5498 5495 5492
5565 5566 5565 5566 5564 5563 5562 5560 5558 5556 5552 5548 5541 5537 5536 5534 5533 5532 5530 5529 5528 5526 5525 5522 5520 5517 5515 5512 5510 5507 5505 5502 5500 5496 5493 5490 5487 5484
5552 5552 5552 5552 5551 5551 5550 5547 5545 5542 5539 5536 5531 5527 5525 5523 5521 5520 5520 5518 5517 5516 5515 5514 5512 5510 5508 5506 5504 5501 5499 5496 5494 5491 5488 5485 5482 5479
5540 5540 5540 5540 5540 5540 5538 5535 5533 5530 5527 5524 5520 5518 5516 5514 5512 5509 5509 5508 5508 5507 5507 5506 5505 5504 5502 5500 5499 5497 5494 5492 5489 5486 5484 5481 5478 5475
5528 5528 5529 5528 5528 5527 5526 5525 5523 5520 5517 5514 5511 5509 5507 5504 5502 5501 5500 5501 5502 5499 5498 5499 5498 5498 5497 5496 5494 5493 5491 5488 5486 5483 5481 5478 5475 5472
5517 5517 5517 5516 5516 5516 5515 5514 5512 5510 5508 5506 5503 5501 5499 5498 5496 5495 5493 5493 5493 5492 5491 5494 5493 5493 5493 5492 5491 5489 5487 5485 5483 5481 5479 5476 5473 5470
5506 5506 5506 5505 5506 5506 5505 5504 5502 5500 5499 5497 5496 5494 5493 5491 5489 5487 5486 5485 5486 5486 5484 5487 5488 5488 5489 5488 5488 5486 5485 5483 5481 5479 5477 5475 5472 5469
5496 5497 5497 5497 5497 5497 5496 5495 5494 5493 5492 5491 5490 5489 5488 5487 5484 5482 5482 5484 5485 5484 5481 5481 5483 5483 5484 5485 5485 5484 5483 5482 5480 5478 5476 5474 5471 5468
5489 5489 5489 5489 5490 5489 5489 5488 5487 5486 5485 5486 5485 5485 5484 5483 5481 5479 5479 5479 5479 5480 5479 5477 5479 5478 5481 5483 5482 5482 5481 5481 5479 5478 5476 5474 5471 5467
5483 5483 5483 5484 5484 5484 5483 5482 5481 5480 5479 5479 5480 5480 5480 5479 5477 5476 5475 5475 5476 5477 5476 5474 5476 5474 5475 5477 5479 5480 5479 5478 5478 5477 5476 5474 5471 5468
5478 5478 5478 5479 5479 5479 5478 5477 5477 5476 5475 5475 5475 5475 5475 5475 5474 5474 5474 5474 5474 5474 5474 5472 5472 5473 5473 5474 5477 5478 5478 5477 5476 5476 5475 5474 5472 5469
5474 5474 5475 5475 5475 5474 5473 5473 5472 5472 5471 5471 5470 5469 5469 5469 5470 5472 5473 5473 5474 5474 5474 5472 5471 5471 5470 5472 5474 5475 5476 5477 5476 5474 5474 5473 5471 5470
5471 5471 5471 5471 5471 5470 5469 5468 5467 5467 5466 5466 5465 5465 5466 5467 5468 5469 5470 5470 5472 5474 5473 5472 5471 5470 5471 5472 5471 5474 5474 5474 5476 5474 5473 5473 5473 5470
5468 5468 5468 5467 5467 5466 5465 5464 5463 5463 5463 5463 5463 5463 5464 5465 5466 5466 5466 5467 5469 5470 5472 5472 5472 5471 5472 5472 5474 5476 5476 5476 5475 5474 5473 5474 5475 5473
5467 5466 5464 5463 5463 5462 5462 5462 5461 5461 5460 5460 5460 5461 5461 5462 5463 5464 5464 5465 5467 5468 5469 5470 5470 5473 5476 5477 5474 5475 5477 5477 5476 5474 5472 5473 5476 5475
5467 5465 5463 5462 5461 5460 5460 5460 5459 5458 5457 5458 5458 5459 5459 5460 5461 5462 5463 5465 5466 5467 5468 5468 5469 5471 5474 5477 5480 5476 5475 5477 5476 5476 5475 5473 5475 5476
5467 5466 5464 5463 5462 5461 5460 5459 5458 5458 5457 5457 5457 5457 5457 5458 5460 5461 5461 5462 5464 5466 5469 5470 5470 5469 5470 5472 5474 5476 5476 5475 5476 5477 5477 5475 5474 5474
5469 5467 5466 5465 5463 5462 5461 5459 5458 5458 5457 5456 5456 5456 5456 5458 5459 5460 5461 5461 5463 5466 5468 5471 5470 5468 5468 5468 5472 5476 5478 5476 5475 5474 5475 5475 5476 5476
5472 5470 5469 5467 5466 5464 5462 5461 5460 5459 5457 5457 5457 5456 5456 5457 5458 5459 5461 5462 5464 5465 5467 5469 5470 5470 5471 5472 5474 5475 5476 5476 5476 5474 5472 5471 5472 5474
5476 5474 5472 5470 5469 5467 5465 5463 5462 5461 5459 5458 5458 5457 5457 5458 5459 5460 5461 5462 5464 5466 5468 5469 5471 5471 5471 5471 5471 5472 5473 5474 5474 5474 5474 5472 5470 5468